Year,Month,Day,Hour,Minute,Value (Times are PST for temperature in C)
2013,03,21,00,00,-13.10
2013,03,21,00,01,-13.10
2013,03,21,00,02,-13.10
2013,03,21,00,03,-13.10
2013,03,21,00,04,-13.10
2013,03,21,00,05,-13.10
2013,03,21,00,06,-13.10
2013,03,21,00,07,-13.10
2013,03,21,00,08,-13.20
2013,03,21,00,09,-13.30
2013,03,21,00,10,-13.30
2013,03,21,00,11,-13.40
2013,03,21,00,12,-13.40
2013,03,21,00,13,-13.50
2013,03,21,00,14,-13.60
2013,03,21,00,15,-13.60
2013,03,21,00,16,-13.70
2013,03,21,00,17,-13.70
2013,03,21,00,18,-13.80
2013,03,21,00,19,-13.80
2013,03,21,00,20,-13.80
2013,03,21,00,21,-13.90
2013,03,21,00,22,-13.90
2013,03,21,00,23,-13.90
2013,03,21,00,24,-14.00
2013,03,21,00,25,-14.00
2013,03,21,00,26,-14.00
2013,03,21,00,27,-14.00
2013,03,21,00,28,-14.10
2013,03,21,00,29,-14.00
2013,03,21,00,30,-14.00
2013,03,21,00,31,-14.00
2013,03,21,00,32,-14.10
2013,03,21,00,33,-14.10
2013,03,21,00,34,-14.10
2013,03,21,00,35,-14.10
2013,03,21,00,36,-14.20
2013,03,21,00,37,-14.20
2013,03,21,00,38,-14.30
2013,03,21,00,39,-14.30
2013,03,21,00,40,-14.40
2013,03,21,00,41,-14.40
2013,03,21,00,42,-14.50
2013,03,21,00,43,-14.50
2013,03,21,00,44,-14.50
2013,03,21,00,45,-14.60
2013,03,21,00,46,-14.60
2013,03,21,00,47,-14.70
2013,03,21,00,48,-14.70
2013,03,21,00,49,-14.80
2013,03,21,00,50,-14.80
2013,03,21,00,51,-14.80
2013,03,21,00,52,-14.90
2013,03,21,00,53,-14.90
2013,03,21,00,54,-15.00
2013,03,21,00,55,-15.00
2013,03,21,00,56,-15.10
2013,03,21,00,57,-15.10
2013,03,21,00,58,-15.10
2013,03,21,00,59,-15.20
2013,03,21,01,00,-15.20
2013,03,21,01,01,-15.20
2013,03,21,01,02,-15.30
2013,03,21,01,03,-15.30
2013,03,21,01,04,-15.30
2013,03,21,01,05,-15.30
2013,03,21,01,06,-15.30
2013,03,21,01,07,-15.30
2013,03,21,01,08,-15.30
2013,03,21,01,09,-15.30
2013,03,21,01,10,-15.30
2013,03,21,01,11,-15.30
2013,03,21,01,12,-15.30
2013,03,21,01,13,-15.30
2013,03,21,01,14,-15.40
2013,03,21,01,15,-15.40
2013,03,21,01,16,-15.40
2013,03,21,01,17,-15.50
2013,03,21,01,18,-15.60
2013,03,21,01,19,-15.60
2013,03,21,01,20,-15.60
2013,03,21,01,21,-15.70
2013,03,21,01,22,-15.70
2013,03,21,01,23,-15.70
2013,03,21,01,24,-15.80
2013,03,21,01,25,-15.80
2013,03,21,01,26,-15.80
2013,03,21,01,27,-15.80
2013,03,21,01,28,-15.80
2013,03,21,01,29,-15.90
2013,03,21,01,30,-15.90
2013,03,21,01,31,-15.90
2013,03,21,01,32,-15.90
2013,03,21,01,33,-16.00
2013,03,21,01,34,-16.00
2013,03,21,01,35,-16.00
2013,03,21,01,36,-16.00
2013,03,21,01,37,-16.10
2013,03,21,01,38,-16.10
2013,03,21,01,39,-16.10
2013,03,21,01,40,-16.10
2013,03,21,01,41,-16.10
2013,03,21,01,42,-16.00
2013,03,21,01,43,-16.00
2013,03,21,01,44,-16.00
2013,03,21,01,45,-16.00
2013,03,21,01,46,-16.00
2013,03,21,01,47,-16.10
2013,03,21,01,48,-16.10
2013,03,21,01,49,-16.10
2013,03,21,01,50,-16.10
2013,03,21,01,51,-16.10
2013,03,21,01,52,-16.10
2013,03,21,01,53,-16.20
2013,03,21,01,54,-16.20
2013,03,21,01,55,-16.20
2013,03,21,01,56,-16.20
2013,03,21,01,57,-16.20
2013,03,21,01,58,-16.10
2013,03,21,01,59,-16.00
2013,03,21,02,00,-16.00
2013,03,21,02,01,-16.00
2013,03,21,02,02,-16.00
2013,03,21,02,03,-16.00
2013,03,21,02,04,-16.00
2013,03,21,02,05,-16.10
2013,03,21,02,06,-16.10
2013,03,21,02,07,-16.10
2013,03,21,02,08,-16.10
2013,03,21,02,09,-16.20
2013,03,21,02,10,-16.20
2013,03,21,02,11,-16.30
2013,03,21,02,12,-16.30
2013,03,21,02,13,-16.40
2013,03,21,02,14,-16.40
2013,03,21,02,15,-16.50
2013,03,21,02,16,-16.50
2013,03,21,02,17,-16.60
2013,03,21,02,18,-16.60
2013,03,21,02,19,-16.70
2013,03,21,02,20,-16.70
2013,03,21,02,21,-16.70
2013,03,21,02,22,-16.80
2013,03,21,02,23,-16.80
2013,03,21,02,24,-16.80
2013,03,21,02,25,-16.80
2013,03,21,02,26,-16.90
2013,03,21,02,27,-16.90
2013,03,21,02,28,-16.90
2013,03,21,02,29,-17.00
2013,03,21,02,30,-17.00
2013,03,21,02,31,-17.00
2013,03,21,02,32,-17.00
2013,03,21,02,33,-17.00
2013,03,21,02,34,-17.00
2013,03,21,02,35,-17.10
2013,03,21,02,36,-17.10
2013,03,21,02,37,-17.10
2013,03,21,02,38,-17.20
2013,03,21,02,39,-17.20
2013,03,21,02,40,-17.20
2013,03,21,02,41,-17.20
2013,03,21,02,42,-17.30
2013,03,21,02,43,-17.40
2013,03,21,02,44,-17.40
2013,03,21,02,45,-17.40
2013,03,21,02,46,-17.50
2013,03,21,02,47,-17.50
2013,03,21,02,48,-17.50
2013,03,21,02,49,-17.60
2013,03,21,02,50,-17.60
2013,03,21,02,51,-17.60
2013,03,21,02,52,-17.70
2013,03,21,02,53,-17.70
2013,03,21,02,54,-17.80
2013,03,21,02,55,-17.80
2013,03,21,02,56,-17.80
2013,03,21,02,57,-17.80
2013,03,21,02,58,-17.80
2013,03,21,02,59,-17.80
2013,03,21,03,00,-17.90
2013,03,21,03,01,-17.90
2013,03,21,03,02,-17.90
2013,03,21,03,03,-17.90
2013,03,21,03,04,-17.90
2013,03,21,03,05,-18.00
2013,03,21,03,06,-18.00
2013,03,21,03,07,-18.00
2013,03,21,03,08,-18.00
2013,03,21,03,09,-18.10
2013,03,21,03,10,-18.10
2013,03,21,03,11,-18.20
2013,03,21,03,12,-18.30
2013,03,21,03,13,-18.30
2013,03,21,03,14,-18.30
2013,03,21,03,15,-18.40
2013,03,21,03,16,-18.40
2013,03,21,03,17,-18.40
2013,03,21,03,18,-18.50
2013,03,21,03,19,-18.50
2013,03,21,03,20,-18.50
2013,03,21,03,21,-18.60
2013,03,21,03,22,-18.70
2013,03,21,03,23,-18.70
2013,03,21,03,24,-18.70
2013,03,21,03,25,-18.80
2013,03,21,03,26,-18.80
2013,03,21,03,27,-18.80
2013,03,21,03,28,-18.80
2013,03,21,03,29,-18.90
2013,03,21,03,30,-18.90
2013,03,21,03,31,-19.00
2013,03,21,03,32,-19.00
2013,03,21,03,33,-19.00
2013,03,21,03,34,-19.00
2013,03,21,03,35,-19.00
2013,03,21,03,36,-19.00
2013,03,21,03,37,-19.00
2013,03,21,03,38,-19.00
2013,03,21,03,39,-19.10
2013,03,21,03,40,-19.10
2013,03,21,03,41,-19.10
2013,03,21,03,42,-19.20
2013,03,21,03,43,-19.20
2013,03,21,03,44,-19.20
2013,03,21,03,45,-19.20
2013,03,21,03,46,-19.20
2013,03,21,03,47,-19.20
2013,03,21,03,48,-19.20
2013,03,21,03,49,-19.20
2013,03,21,03,50,-19.30
2013,03,21,03,51,-19.30
2013,03,21,03,52,-19.30
2013,03,21,03,53,-19.40
2013,03,21,03,54,-19.40
2013,03,21,03,55,-19.40
2013,03,21,03,56,-19.40
2013,03,21,03,57,-19.40
2013,03,21,03,58,-19.40
2013,03,21,03,59,-19.40
2013,03,21,04,00,-19.40
2013,03,21,04,01,-19.50
2013,03,21,04,02,-19.50
2013,03,21,04,03,-19.50
2013,03,21,04,04,-19.50
2013,03,21,04,05,-19.60
2013,03,21,04,06,-19.60
2013,03,21,04,07,-19.60
2013,03,21,04,08,-19.60
2013,03,21,04,09,-19.60
2013,03,21,04,10,-19.60
2013,03,21,04,11,-19.60
2013,03,21,04,12,-19.60
2013,03,21,04,13,-19.60
2013,03,21,04,14,-19.70
2013,03,21,04,15,-19.70
2013,03,21,04,16,-19.70
2013,03,21,04,17,-19.80
2013,03,21,04,18,-19.80
2013,03,21,04,19,-19.80
2013,03,21,04,20,-19.80
2013,03,21,04,21,-19.90
2013,03,21,04,22,-19.90
2013,03,21,04,23,-19.90
2013,03,21,04,24,-20.00
2013,03,21,04,25,-20.00
2013,03,21,04,26,-20.10
2013,03,21,04,27,-20.10
2013,03,21,04,28,-20.20
2013,03,21,04,29,-20.20
2013,03,21,04,30,-20.30
2013,03,21,04,31,-20.30
2013,03,21,04,32,-20.30
2013,03,21,04,33,-20.40
2013,03,21,04,34,-20.40
2013,03,21,04,35,-20.40
2013,03,21,04,36,-20.40
2013,03,21,04,37,-20.40
2013,03,21,04,38,-20.40
2013,03,21,04,39,-20.40
2013,03,21,04,40,-20.40
2013,03,21,04,41,-20.50
2013,03,21,04,42,-20.50
2013,03,21,04,43,-20.50
2013,03,21,04,44,-20.50
2013,03,21,04,45,-20.50
2013,03,21,04,46,-20.50
2013,03,21,04,47,-20.60
2013,03,21,04,48,-20.60
2013,03,21,04,49,-20.60
2013,03,21,04,50,-20.60
2013,03,21,04,51,-20.60
2013,03,21,04,52,-20.60
2013,03,21,04,53,-20.60
2013,03,21,04,54,-20.70
2013,03,21,04,55,-20.70
2013,03,21,04,56,-20.70
2013,03,21,04,57,-20.70
2013,03,21,04,58,-20.80
2013,03,21,04,59,-20.80
2013,03,21,05,00,-20.80
2013,03,21,05,01,-20.90
2013,03,21,05,02,-20.90
2013,03,21,05,03,-21.00
2013,03,21,05,04,-21.00
2013,03,21,05,05,-21.00
2013,03,21,05,06,-21.00
2013,03,21,05,07,-21.00
2013,03,21,05,08,-21.10
2013,03,21,05,09,-21.10
2013,03,21,05,10,-21.10
2013,03,21,05,11,-21.10
2013,03,21,05,12,-21.10
2013,03,21,05,13,-21.10
2013,03,21,05,14,-21.10
2013,03,21,05,15,-21.10
2013,03,21,05,16,-21.10
2013,03,21,05,17,-21.10
2013,03,21,05,18,-21.10
2013,03,21,05,19,-21.20
2013,03,21,05,20,-21.20
2013,03,21,05,21,-21.20
2013,03,21,05,22,-21.20
2013,03,21,05,23,-21.20
2013,03,21,05,24,-21.20
2013,03,21,05,25,-21.20
2013,03,21,05,26,-21.20
2013,03,21,05,27,-21.20
2013,03,21,05,28,-21.30
2013,03,21,05,29,-21.20
2013,03,21,05,30,-21.30
2013,03,21,05,31,-21.30
2013,03,21,05,32,-21.30
2013,03,21,05,33,-21.30
2013,03,21,05,34,-21.40
2013,03,21,05,35,-21.40
2013,03,21,05,36,-21.40
2013,03,21,05,37,-21.40
2013,03,21,05,38,-21.40
2013,03,21,05,39,-21.50
2013,03,21,05,40,-21.50
2013,03,21,05,41,-21.50
2013,03,21,05,42,-21.50
2013,03,21,05,43,-21.50
2013,03,21,05,44,-21.50
2013,03,21,05,45,-21.50
2013,03,21,05,46,-21.50
2013,03,21,05,47,-21.50
2013,03,21,05,48,-21.50
2013,03,21,05,49,-21.60
2013,03,21,05,50,-21.60
2013,03,21,05,51,-21.60
2013,03,21,05,52,-21.60
2013,03,21,05,53,-21.60
2013,03,21,05,54,-21.60
2013,03,21,05,55,-21.60
2013,03,21,05,56,-21.60
2013,03,21,05,57,-21.60
2013,03,21,05,58,-21.70
2013,03,21,05,59,-21.70
2013,03,21,06,00,-21.70
2013,03,21,06,01,-21.70
2013,03,21,06,02,-21.70
2013,03,21,06,03,-21.70
2013,03,21,06,04,-21.80
2013,03,21,06,05,-21.80
2013,03,21,06,06,-21.80
2013,03,21,06,07,-21.90
2013,03,21,06,08,-21.90
2013,03,21,06,09,-21.90
2013,03,21,06,10,-21.90
2013,03,21,06,11,-21.90
2013,03,21,06,12,-22.00
2013,03,21,06,13,-22.00
2013,03,21,06,14,-22.00
2013,03,21,06,15,-22.10
2013,03,21,06,16,-22.10
2013,03,21,06,17,-22.10
2013,03,21,06,18,-22.20
2013,03,21,06,19,-22.20
2013,03,21,06,20,-22.30
2013,03,21,06,21,-22.30
2013,03,21,06,22,-22.30
2013,03,21,06,23,-22.30
2013,03,21,06,24,-22.40
2013,03,21,06,25,-22.40
2013,03,21,06,26,-22.40
2013,03,21,06,27,-22.40
2013,03,21,06,28,-22.40
2013,03,21,06,29,-22.40
2013,03,21,06,30,-22.50
2013,03,21,06,31,-22.40
2013,03,21,06,32,-22.50
2013,03,21,06,33,-22.40
2013,03,21,06,34,-22.40
2013,03,21,06,35,-22.40
2013,03,21,06,36,-22.40
2013,03,21,06,37,-22.40
2013,03,21,06,38,-22.40
2013,03,21,06,39,-22.40
2013,03,21,06,40,-22.50
2013,03,21,06,41,-22.50
2013,03,21,06,42,-22.50
2013,03,21,06,43,-22.50
2013,03,21,06,44,-22.50
2013,03,21,06,45,-22.50
2013,03,21,06,46,-22.50
2013,03,21,06,47,-22.50
2013,03,21,06,48,-22.60
2013,03,21,06,49,-22.60
2013,03,21,06,50,-22.60
2013,03,21,06,51,-22.60
2013,03,21,06,52,-22.60
2013,03,21,06,53,-22.70
2013,03,21,06,54,-22.70
2013,03,21,06,55,-22.70
2013,03,21,06,56,-22.70
2013,03,21,06,57,-22.70
2013,03,21,06,58,-22.70
2013,03,21,06,59,-22.80
2013,03,21,07,00,-22.80
2013,03,21,07,01,-22.80
2013,03,21,07,02,-22.80
2013,03,21,07,03,-22.80
2013,03,21,07,04,-22.90
2013,03,21,07,05,-22.90
2013,03,21,07,06,-22.90
2013,03,21,07,07,-22.90
2013,03,21,07,08,-22.90
2013,03,21,07,09,-22.90
2013,03,21,07,10,-23.00
2013,03,21,07,11,-23.00
2013,03,21,07,12,-23.00
2013,03,21,07,13,-23.10
2013,03,21,07,14,-23.10
2013,03,21,07,15,-23.10
2013,03,21,07,16,-23.10
2013,03,21,07,17,-23.20
2013,03,21,07,18,-23.20
2013,03,21,07,19,-23.20
2013,03,21,07,20,-23.20
2013,03,21,07,21,-23.30
2013,03,21,07,22,-23.30
2013,03,21,07,23,-23.40
2013,03,21,07,24,-23.40
2013,03,21,07,25,-23.40
2013,03,21,07,26,-23.40
2013,03,21,07,27,-23.40
2013,03,21,07,28,-23.50
2013,03,21,07,29,-23.50
2013,03,21,07,30,-23.50
2013,03,21,07,31,-23.50
2013,03,21,07,32,-23.50
2013,03,21,07,33,-23.60
2013,03,21,07,34,-23.60
2013,03,21,07,35,-23.60
2013,03,21,07,36,-23.60
2013,03,21,07,37,-23.60
2013,03,21,07,38,-23.60
2013,03,21,07,39,-23.60
2013,03,21,07,40,-23.70
2013,03,21,07,41,-23.70
2013,03,21,07,42,-23.70
2013,03,21,07,43,-23.80
2013,03,21,07,44,-23.80
2013,03,21,07,45,-23.90
2013,03,21,07,46,-23.90
2013,03,21,07,47,-23.90
2013,03,21,07,48,-24.00
2013,03,21,07,49,-24.00
2013,03,21,07,50,-24.10
2013,03,21,07,51,-24.00
2013,03,21,07,52,-24.10
2013,03,21,07,53,-24.10
2013,03,21,07,54,-24.10
2013,03,21,07,55,-24.10
2013,03,21,07,56,-24.10
2013,03,21,07,57,-24.20
2013,03,21,07,58,-24.20
2013,03,21,07,59,-24.20
2013,03,21,08,00,-24.20
2013,03,21,08,01,-24.20
2013,03,21,08,02,-24.30
2013,03,21,08,03,-24.30
2013,03,21,08,04,-24.30
2013,03,21,08,05,-24.30
2013,03,21,08,06,-24.30
2013,03,21,08,07,-24.30
2013,03,21,08,08,-24.40
2013,03,21,08,09,-24.40
2013,03,21,08,10,-24.40
2013,03,21,08,11,-24.40
2013,03,21,08,12,-24.40
2013,03,21,08,13,-24.40
2013,03,21,08,14,-24.50
2013,03,21,08,15,-24.50
2013,03,21,08,16,-24.60
2013,03,21,08,17,-24.60
2013,03,21,08,18,-24.60
2013,03,21,08,19,-24.60
2013,03,21,08,20,-24.60
2013,03,21,08,21,-24.60
2013,03,21,08,22,-24.60
2013,03,21,08,23,-24.60
2013,03,21,08,24,-24.60
2013,03,21,08,25,-24.60
2013,03,21,08,26,-24.60
2013,03,21,08,27,-24.60
2013,03,21,08,28,-24.60
2013,03,21,08,29,-24.60
2013,03,21,08,30,-24.60
2013,03,21,08,31,-24.60
2013,03,21,08,32,-24.60
2013,03,21,08,33,-24.60
2013,03,21,08,34,-24.60
2013,03,21,08,35,-24.60
2013,03,21,08,36,-24.60
2013,03,21,08,37,-24.70
2013,03,21,08,38,-24.60
2013,03,21,08,39,-24.60
2013,03,21,08,40,-24.70
2013,03,21,08,41,-24.70
2013,03,21,08,42,-24.70
2013,03,21,08,43,-24.70
2013,03,21,08,44,-24.70
2013,03,21,08,45,-24.70
2013,03,21,08,46,-24.70
2013,03,21,08,47,-24.70
2013,03,21,08,48,-24.70
2013,03,21,08,49,-24.70
2013,03,21,08,50,-24.70
2013,03,21,08,51,-24.70
2013,03,21,08,52,-24.70
2013,03,21,08,53,-24.70
2013,03,21,08,54,-24.60
2013,03,21,08,55,-24.60
2013,03,21,08,56,-24.60
2013,03,21,08,57,-24.60
2013,03,21,08,58,-24.60
2013,03,21,08,59,-24.60
2013,03,21,09,00,-24.60
2013,03,21,09,01,-24.50
2013,03,21,09,02,-24.50
2013,03,21,09,03,-24.50
2013,03,21,09,04,-24.50
2013,03,21,09,05,-24.50
2013,03,21,09,06,-24.50
2013,03,21,09,07,-24.50
2013,03,21,09,08,-24.50
2013,03,21,09,09,-24.50
2013,03,21,09,10,-24.50
2013,03,21,09,11,-24.40
2013,03,21,09,12,-24.50
2013,03,21,09,13,-24.50
2013,03,21,09,14,-24.50
2013,03,21,09,15,-24.50
2013,03,21,09,16,-24.50
2013,03,21,09,17,-24.60
2013,03,21,09,18,-24.60
2013,03,21,09,19,-24.70
2013,03,21,09,20,-24.70
2013,03,21,09,21,-24.70
2013,03,21,09,22,-24.70
2013,03,21,09,23,-24.70
2013,03,21,09,24,-24.70
2013,03,21,09,25,-24.70
2013,03,21,09,26,-24.70
2013,03,21,09,27,-24.70
2013,03,21,09,28,-24.70
2013,03,21,09,29,-24.70
2013,03,21,09,30,-24.70
2013,03,21,09,31,-24.80
2013,03,21,09,32,-24.80
2013,03,21,09,33,-24.80
2013,03,21,09,34,-24.80
2013,03,21,09,35,-24.80
2013,03,21,09,36,-24.80
2013,03,21,09,37,-24.80
2013,03,21,09,38,-24.80
2013,03,21,09,39,-24.80
2013,03,21,09,40,-24.80
2013,03,21,09,41,-24.80
2013,03,21,09,42,-24.80
2013,03,21,09,43,-24.80
2013,03,21,09,44,-24.80
2013,03,21,09,45,-24.80
2013,03,21,09,46,-24.80
2013,03,21,09,47,-24.80
2013,03,21,09,48,-24.80
2013,03,21,09,49,-24.80
2013,03,21,09,50,-24.80
2013,03,21,09,51,-24.70
2013,03,21,09,52,-24.70
2013,03,21,09,53,-24.70
2013,03,21,09,54,-24.70
2013,03,21,09,55,-24.60
2013,03,21,09,56,-24.60
2013,03,21,09,57,-24.60
2013,03,21,09,58,-24.50
2013,03,21,09,59,-24.40
2013,03,21,10,00,-24.40
2013,03,21,10,01,-24.40
2013,03,21,10,02,-24.40
2013,03,21,10,03,-24.40
2013,03,21,10,04,-24.40
2013,03,21,10,05,-24.30
2013,03,21,10,06,-24.30
2013,03,21,10,07,-24.30
2013,03,21,10,08,-24.30
2013,03,21,10,09,-24.30
2013,03,21,10,10,-24.30
2013,03,21,10,11,-24.30
2013,03,21,10,12,-24.20
2013,03,21,10,13,-24.20
2013,03,21,10,14,-24.20
2013,03,21,10,15,-24.20
2013,03,21,10,16,-24.20
2013,03,21,10,17,-24.20
2013,03,21,10,18,-24.20
2013,03,21,10,19,-24.20
2013,03,21,10,20,-24.10
2013,03,21,10,21,-24.10
2013,03,21,10,22,-24.10
2013,03,21,10,23,-24.10
2013,03,21,10,24,-24.00
2013,03,21,10,25,-24.00
2013,03,21,10,26,-23.90
2013,03,21,10,27,-23.90
2013,03,21,10,28,-23.90
2013,03,21,10,29,-23.90
2013,03,21,10,30,-23.90
2013,03,21,10,31,-23.80
2013,03,21,10,32,-23.70
2013,03,21,10,33,-23.70
2013,03,21,10,34,-23.70
2013,03,21,10,35,-23.60
2013,03,21,10,36,-23.60
2013,03,21,10,37,-23.50
2013,03,21,10,38,-23.50
2013,03,21,10,39,-23.50
2013,03,21,10,40,-23.40
2013,03,21,10,41,-23.40
2013,03,21,10,42,-23.30
2013,03,21,10,43,-23.30
2013,03,21,10,44,-23.20
2013,03,21,10,45,-23.20
2013,03,21,10,46,-23.10
2013,03,21,10,47,-23.00
2013,03,21,10,48,-23.00
2013,03,21,10,49,-23.00
2013,03,21,10,50,-22.90
2013,03,21,10,51,-22.80
2013,03,21,10,52,-22.60
2013,03,21,10,53,-22.50
2013,03,21,10,54,-22.40
2013,03,21,10,55,-22.20
2013,03,21,10,56,-21.90
2013,03,21,10,57,-21.80
2013,03,21,10,58,-21.60
2013,03,21,10,59,-21.40
2013,03,21,11,00,-21.20
2013,03,21,11,01,-21.10
2013,03,21,11,02,-21.00
2013,03,21,11,03,-20.70
2013,03,21,11,04,-20.50
2013,03,21,11,05,-20.30
2013,03,21,11,06,-20.20
2013,03,21,11,07,-20.00
2013,03,21,11,08,-19.80
2013,03,21,11,09,-19.70
2013,03,21,11,10,-19.60
2013,03,21,11,11,-19.60
2013,03,21,11,12,-19.50
2013,03,21,11,13,-19.40
2013,03,21,11,14,-19.40
2013,03,21,11,15,-19.30
2013,03,21,11,16,-19.20
2013,03,21,11,17,-19.00
2013,03,21,11,18,-18.90
2013,03,21,11,19,-18.80
2013,03,21,11,20,-18.60
2013,03,21,11,21,-18.50
2013,03,21,11,22,-18.40
2013,03,21,11,23,-18.30
2013,03,21,11,24,-18.20
2013,03,21,11,25,-18.10
2013,03,21,11,26,-18.00
2013,03,21,11,27,-18.00
2013,03,21,11,28,-17.80
2013,03,21,11,29,-17.60
2013,03,21,11,30,-17.50
2013,03,21,11,31,-17.40
2013,03,21,11,32,-17.30
2013,03,21,11,33,-17.10
2013,03,21,11,34,-17.00
2013,03,21,11,35,-16.80
2013,03,21,11,36,-16.60
2013,03,21,11,37,-16.50
2013,03,21,11,38,-16.40
2013,03,21,11,39,-16.20
2013,03,21,11,40,-16.10
2013,03,21,11,41,-16.00
2013,03,21,11,42,-15.80
2013,03,21,11,43,-15.70
2013,03,21,11,44,-15.60
2013,03,21,11,45,-15.40
2013,03,21,11,46,-15.30
2013,03,21,11,47,-15.20
2013,03,21,11,48,-15.10
2013,03,21,11,49,-14.90
2013,03,21,11,50,-14.80
2013,03,21,11,51,-14.70
2013,03,21,11,52,-14.60
2013,03,21,11,53,-14.50
2013,03,21,11,54,-14.40
2013,03,21,11,55,-14.30
2013,03,21,11,56,-14.20
2013,03,21,11,57,-14.20
2013,03,21,11,58,-14.10
2013,03,21,11,59,-14.00
2013,03,21,12,00,-13.90
2013,03,21,12,01,-13.80
2013,03,21,12,02,-13.70
2013,03,21,12,03,-13.50
2013,03,21,12,04,-13.40
2013,03,21,12,05,-13.30
2013,03,21,12,06,-13.20
2013,03,21,12,07,-13.10
2013,03,21,12,08,-13.00
2013,03,21,12,09,-12.90
2013,03,21,12,10,-12.80
2013,03,21,12,11,-12.70
2013,03,21,12,12,-12.60
2013,03,21,12,13,-12.50
2013,03,21,12,14,-12.40
2013,03,21,12,15,-12.40
2013,03,21,12,16,-12.30
2013,03,21,12,17,-12.40
2013,03,21,12,18,-12.30
2013,03,21,12,19,-12.20
2013,03,21,12,20,-12.10
2013,03,21,12,21,-12.10
2013,03,21,12,22,-12.00
2013,03,21,12,23,-11.80
2013,03,21,12,24,-11.70
2013,03,21,12,25,-11.50
2013,03,21,12,26,-11.40
2013,03,21,12,27,-11.30
2013,03,21,12,28,-11.10
2013,03,21,12,29,-11.00
2013,03,21,12,30,-10.90
2013,03,21,12,31,-10.90
2013,03,21,12,32,-10.90
2013,03,21,12,33,-10.80
2013,03,21,12,34,-10.80
2013,03,21,12,35,-10.70
2013,03,21,12,36,-10.70
2013,03,21,12,37,-10.70
2013,03,21,12,38,-10.60
2013,03,21,12,39,-10.60
2013,03,21,12,40,-10.40
2013,03,21,12,41,-10.40
2013,03,21,12,42,-10.20
2013,03,21,12,43,-10.20
2013,03,21,12,44,-10.10
2013,03,21,12,45,-10.00
2013,03,21,12,46,-9.90
2013,03,21,12,47,-9.80
2013,03,21,12,48,-9.70
2013,03,21,12,49,-9.70
2013,03,21,12,50,-9.60
2013,03,21,12,51,-9.50
2013,03,21,12,52,-9.50
2013,03,21,12,53,-9.50
2013,03,21,12,54,-9.40
2013,03,21,12,55,-9.30
2013,03,21,12,56,-9.30
2013,03,21,12,57,-9.20
2013,03,21,12,58,-9.20
2013,03,21,12,59,-9.10
2013,03,21,13,00,-9.10
2013,03,21,13,01,-9.10
2013,03,21,13,02,-9.00
2013,03,21,13,03,-9.00
2013,03,21,13,04,-8.90
2013,03,21,13,05,-8.80
2013,03,21,13,06,-8.80
2013,03,21,13,07,-8.60
2013,03,21,13,08,-8.50
2013,03,21,13,09,-8.40
2013,03,21,13,10,-8.30
2013,03,21,13,11,-8.20
2013,03,21,13,12,-8.10
2013,03,21,13,13,-7.90
2013,03,21,13,14,-7.80
2013,03,21,13,15,-7.60
2013,03,21,13,16,-7.50
2013,03,21,13,17,-7.30
2013,03,21,13,18,-7.10
2013,03,21,13,19,-7.00
2013,03,21,13,20,-6.90
2013,03,21,13,21,-6.80
2013,03,21,13,22,-6.80
2013,03,21,13,23,-6.70
2013,03,21,13,24,-6.70
2013,03,21,13,25,-6.70
2013,03,21,13,26,-6.70
2013,03,21,13,27,-6.60
2013,03,21,13,28,-6.40
2013,03,21,13,29,-6.40
2013,03,21,13,30,-6.30
2013,03,21,13,31,-6.20
2013,03,21,13,32,-6.20
2013,03,21,13,33,-6.10
2013,03,21,13,34,-6.00
2013,03,21,13,35,-5.90
2013,03,21,13,36,-5.80
2013,03,21,13,37,-5.70
2013,03,21,13,38,-5.60
2013,03,21,13,39,-5.50
2013,03,21,13,40,-5.40
2013,03,21,13,41,-5.30
2013,03,21,13,42,-5.20
2013,03,21,13,43,-5.10
2013,03,21,13,44,-5.00
2013,03,21,13,45,-5.00
2013,03,21,13,46,-5.00
2013,03,21,13,47,-4.90
2013,03,21,13,48,-4.90
2013,03,21,13,49,-4.80
2013,03,21,13,50,-4.70
2013,03,21,13,51,-4.60
2013,03,21,13,52,-4.60
2013,03,21,13,53,-4.50
2013,03,21,13,54,-4.50
2013,03,21,13,55,-4.40
2013,03,21,13,56,-4.30
2013,03,21,13,57,-4.30
2013,03,21,13,58,-4.20
2013,03,21,13,59,-4.10
2013,03,21,14,00,-4.00
2013,03,21,14,01,-3.90
2013,03,21,14,02,-3.80
2013,03,21,14,03,-3.70
2013,03,21,14,04,-3.60
2013,03,21,14,05,-3.50
2013,03,21,14,06,-3.40
2013,03,21,14,07,-3.30
2013,03,21,14,08,-3.20
2013,03,21,14,09,-3.10
2013,03,21,14,10,-3.00
2013,03,21,14,11,-2.90
2013,03,21,14,12,-2.80
2013,03,21,14,13,-2.70
2013,03,21,14,14,-2.70
2013,03,21,14,15,-2.60
2013,03,21,14,16,-2.50
2013,03,21,14,17,-2.40
2013,03,21,14,18,-2.30
2013,03,21,14,19,-2.20
2013,03,21,14,20,-2.10
2013,03,21,14,21,-2.00
2013,03,21,14,22,-1.80
2013,03,21,14,23,-1.70
2013,03,21,14,24,-1.60
2013,03,21,14,25,-1.50
2013,03,21,14,26,-1.30
2013,03,21,14,27,-1.20
2013,03,21,14,28,-1.10
2013,03,21,14,29,-1.00
2013,03,21,14,30,-0.80
2013,03,21,14,31,-0.70
2013,03,21,14,32,-0.60
2013,03,21,14,33,-0.40
2013,03,21,14,34,-0.30
2013,03,21,14,35,-0.30
2013,03,21,14,36,-0.10
2013,03,21,14,37,-3.80
2013,03,21,14,38,-16.30
2013,03,21,14,39,-17.70
2013,03,21,14,40,-17.70
2013,03,21,14,41,-17.70
2013,03,21,14,42,-17.70
2013,03,21,14,43,-17.70
2013,03,21,14,44,-17.70
2013,03,21,14,45,-17.70
2013,03,21,14,46,-17.70
2013,03,21,14,47,-17.70
2013,03,21,14,48,-17.70
2013,03,21,14,49,-17.60
2013,03,21,14,50,-17.60
2013,03,21,14,51,-17.50
2013,03,21,14,52,-17.50
2013,03,21,14,53,-17.40
2013,03,21,14,54,-17.40
2013,03,21,14,55,-17.30
2013,03,21,14,56,-17.30
2013,03,21,14,57,-17.20
2013,03,21,14,58,-17.20
2013,03,21,14,59,-17.10
2013,03,21,15,00,-17.10
2013,03,21,15,01,-17.10
2013,03,21,15,02,-17.00
2013,03,21,15,03,-16.90
2013,03,21,15,04,-16.90
2013,03,21,15,05,-16.80
2013,03,21,15,06,-16.80
2013,03,21,15,07,-16.80
2013,03,21,15,08,-16.70
2013,03,21,15,09,-16.60
2013,03,21,15,10,-16.60
2013,03,21,15,11,-16.50
2013,03,21,15,12,-16.40
2013,03,21,15,13,-16.30
2013,03,21,15,14,-16.30
2013,03,21,15,15,-16.20
2013,03,21,15,16,-16.20
2013,03,21,15,17,-16.20
2013,03,21,15,18,-16.10
2013,03,21,15,19,-16.10
2013,03,21,15,20,-16.10
2013,03,21,15,21,-16.10
2013,03,21,15,22,-16.10
2013,03,21,15,23,-16.10
2013,03,21,15,24,-16.10
2013,03,21,15,25,-16.10
2013,03,21,15,26,-16.00
2013,03,21,15,27,-16.00
2013,03,21,15,28,-15.90
2013,03,21,15,29,-15.90
2013,03,21,15,30,-15.80
2013,03,21,15,31,-15.80
2013,03,21,15,32,-15.70
2013,03,21,15,33,-15.70
2013,03,21,15,34,-15.60
2013,03,21,15,35,-15.50
2013,03,21,15,36,-15.50
2013,03,21,15,37,-15.40
2013,03,21,15,38,-15.30
2013,03,21,15,39,-15.30
2013,03,21,15,40,-15.20
2013,03,21,15,41,-15.20
2013,03,21,15,42,-15.20
2013,03,21,15,43,-15.20
2013,03,21,15,44,-15.10
2013,03,21,15,45,-15.10
2013,03,21,15,46,-15.10
2013,03,21,15,47,-15.00
2013,03,21,15,48,-15.00
2013,03,21,15,49,-14.90
2013,03,21,15,50,-14.90
2013,03,21,15,51,-14.80
2013,03,21,15,52,-14.80
2013,03,21,15,53,-14.80
2013,03,21,15,54,-14.70
2013,03,21,15,55,-14.70
2013,03,21,15,56,-14.60
2013,03,21,15,57,-14.60
2013,03,21,15,58,-14.50
2013,03,21,15,59,-14.50
2013,03,21,16,00,-14.40
2013,03,21,16,01,-14.30
2013,03,21,16,02,-14.30
2013,03,21,16,03,-14.20
2013,03,21,16,04,-14.20
2013,03,21,16,05,-14.10
2013,03,21,16,06,-14.10
2013,03,21,16,07,-14.00
2013,03,21,16,08,-14.00
2013,03,21,16,09,-13.90
2013,03,21,16,10,-13.90
2013,03,21,16,11,-13.90
2013,03,21,16,12,-13.80
2013,03,21,16,13,-13.80
2013,03,21,16,14,-13.80
2013,03,21,16,15,-13.80
2013,03,21,16,16,-13.80
2013,03,21,16,17,-13.80
2013,03,21,16,18,-13.80
2013,03,21,16,19,-13.90
2013,03,21,16,20,-13.90
2013,03,21,16,21,-13.90
2013,03,21,16,22,-13.90
2013,03,21,16,23,-13.80
2013,03,21,16,24,-13.80
2013,03,21,16,25,-13.80
2013,03,21,16,26,-13.80
2013,03,21,16,27,-13.70
2013,03,21,16,28,-13.70
2013,03,21,16,29,-13.70
2013,03,21,16,30,-13.70
2013,03,21,16,31,-13.60
2013,03,21,16,32,-13.60
2013,03,21,16,33,-13.60
2013,03,21,16,34,-13.50
2013,03,21,16,35,-13.50
2013,03,21,16,36,-13.40
2013,03,21,16,37,-13.30
2013,03,21,16,38,-13.30
2013,03,21,16,39,-13.30
2013,03,21,16,40,-13.20